Regional Weather Roundup
Issued by NWS Lake Charles, LA

Home | Current Version | Previous Version | Text Only | Print | Product List | Glossary On
Versions: 1 2 3 4 5 6 7 8 9 10 11 12 13 14 15 16 17 18 19 20 21 22 23 24 25 26 27 28 29 30 31 32 33 34 35 36 37 38 39 40 41 42 43 44 45 46 47 48 49 50
000
ASUS44 KLCH 291110
RWRLCH
RWRLCH
REGIONAL WEATHER ROUNDUP
NATIONAL WEATHER SERVICE LAKE CHARLES LA
600 AM CDT SUN MAR 29 2015

Note: "fair" indicates few or no clouds below 12,000 feet with no
significant weather and/or obstructions to visibility.


ACROSS SOUTHEAST TEXAS

CITY           SKY/WX    TMP DP  RH WIND       PRES   REMARKS
BEAUMONT       CLEAR     61  60  97 S7        30.14R
BEAUMONT CITY  CLOUDY    59  59 100 S5        30.14R FOG
ORANGE         SUNNY     62  59  91 S6        30.16R
JASPER         FOG       60  60  98 CALM      30.16R VSB 3/4
$$

ACROSS CENTRAL LOUISIANA

CITY           SKY/WX    TMP DP  RH WIND       PRES   REMARKS
LEESVILLE      CLOUDY    57  56  98 SE6       30.16R FOG
FULLERTON        N/A     57  54  89 CALM      30.15R FOG
ALEXANDRIA INT CLOUDY    58  57  97 SE7       30.17R FOG
ESLER FIELD    CLOUDY    55  53  93 E3        30.19R
DERIDDER       FOG       59  58  96 CALM      30.17S VSB 1
OAKDALE        CLOUDY    59  58  96 CALM      30.18R FOG
OPELOUSAS        N/A     55  54  97 E5        30.19R
$$

ACROSS SOUTHWEST AND SOUTH CENTRAL LOUISIANA

CITY           SKY/WX    TMP DP  RH WIND       PRES   REMARKS
SULPHUR        SUNNY     62  62 100 SE5       30.16S
LAKE CHARLES   CLEAR     57  56  96 SE6       30.16R
CHENNAULT INT  CLEAR     57  55  94 SE7         N/A
CAMERON PHI    NOT AVBL
DEQUINCY       FOG       56  56 100 CALM      30.16R VSB 1/4
JENNINGS       PTSUNNY   59  59 100 SE7       30.18R FOG
LAFAYETTE      CLEAR     55  54  96 CALM      30.20R FOG
NEW IBERIA     CLEAR     54  52  93 SE6       30.20R FOG
ABBEVILLE        N/A     54  54 100 CALM      30.20R FOG
PATTERSON      CLEAR     55  54  94 E3        30.20R
SALT POINT       N/A     58  57  97 E3        30.19R
$$

SELECTED SITES ACROSS THE REGION

CITY           SKY/WX    TMP DP  RH WIND       PRES   REMARKS
HOUSTON BUSH   MOCLDY    59  58  96 SE3       30.12R
HOUSTON HOBBY  MOCLDY    60  59  96 SE3       30.11R
GALVESTON      CLEAR     64  63  96 S8        30.14R
COLLEGE STAT   CLEAR     56  53  90 S8        30.08S
CONROE         CLOUDY    54  52  93 CALM      30.12S FOG
HUNTSVILLE     CLEAR     61  59  93 S14G21    30.09R
LUFKIN         CLOUDY    63  59  87 S8        30.11R
SHREVEPORT     MOCLDY    50  41  71 SE5       30.13R
MONROE         CLOUDY    50  39  66 SE7       30.20S
NATCHEZ MS     CLOUDY    48  36  61 SE10G17   30.22S
BATON ROUGE    CLEAR     50  48  93 E7        30.23R
N.O. INTL ARPT PTCLDY    58  51  78 E5        30.24R
SLIDELL        CLEAR     46  37  71 E5        30.26R
$$

MARINE REPORTS

STATION/POSITION TIME  TEMP    WIND        PRES    VSBY  WAVE
                       AIR SEA DIR/SP/G                  HT/PER
                 (UTC) (F)     (DEG/KT/KT) (MB)    (MI)  (FT/S)
BUOY 30 S HIGH I 1050   66 65  170/  6/  6 1020.3R         2/ 5
SEA RIM ST PARK  1100   65     150/  5/  7 1021.5R
PORT ARTHUR      NOT AVBL
SABINE PASS N    NOT AVBL
TEXAS POINT      NOT AVBL
CALCASIEU PASS   NOT AVBL
LK CHARLES BEACH NOT AVBL
MARSH ISLAND     NOT AVBL
FRESH WATER LOCK NOT AVBL
AMERADA PASS     NOT AVBL
$$


USA.gov is the U.S. government's official web portal to all federal, state and local government web resources and services.